Year,Month,Day,Hour,Minute,Value (Times are PST for windgust in km/hr)
2016,03,10,00,00,29.00
2016,03,10,00,01,41.80
2016,03,10,00,02,20.90
2016,03,10,00,03,30.60
2016,03,10,00,04,30.60
2016,03,10,00,05,19.30
2016,03,10,00,06,32.20
2016,03,10,00,07,24.20
2016,03,10,00,08,51.50
2016,03,10,00,09,32.20
2016,03,10,00,10,20.90
2016,03,10,00,11,40.20
2016,03,10,00,12,33.80
2016,03,10,00,13,20.90
2016,03,10,00,14,41.80
2016,03,10,00,15,20.90
2016,03,10,00,16,25.70
2016,03,10,00,17,43.50
2016,03,10,00,18,29.00
2016,03,10,00,19,41.80
2016,03,10,00,20,27.40
2016,03,10,00,21,33.80
2016,03,10,00,22,32.20
2016,03,10,00,23,33.80
2016,03,10,00,24,45.10
2016,03,10,00,25,38.60
2016,03,10,00,26,27.40
2016,03,10,00,27,41.80
2016,03,10,00,28,46.70
2016,03,10,00,29,29.00
2016,03,10,00,30,38.60
2016,03,10,00,31,29.00
2016,03,10,00,32,29.00
2016,03,10,00,33,27.40
2016,03,10,00,34,33.80
2016,03,10,00,35,46.70
2016,03,10,00,36,17.70
2016,03,10,00,37,24.20
2016,03,10,00,38,17.70
2016,03,10,00,39,37.00
2016,03,10,00,40,27.40
2016,03,10,00,41,30.60
2016,03,10,00,42,22.50
2016,03,10,00,43,29.00
2016,03,10,00,44,22.50
2016,03,10,00,45,29.00
2016,03,10,00,46,22.50
2016,03,10,00,47,20.90
2016,03,10,00,48,20.90
2016,03,10,00,49,29.00
2016,03,10,00,50,19.30
2016,03,10,00,51,27.40
2016,03,10,00,52,27.40
2016,03,10,00,53,19.30
2016,03,10,00,54,25.70
2016,03,10,00,55,30.60
2016,03,10,00,56,27.40
2016,03,10,00,57,22.50
2016,03,10,00,58,27.40
2016,03,10,00,59,38.60
2016,03,10,01,00,27.40
2016,03,10,01,01,41.80
2016,03,10,01,02,38.60
2016,03,10,01,03,30.60
2016,03,10,01,04,29.00
2016,03,10,01,05,24.20
2016,03,10,01,06,46.70
2016,03,10,01,07,30.60
2016,03,10,01,08,40.20
2016,03,10,01,09,33.80
2016,03,10,01,10,22.50
2016,03,10,01,11,27.40
2016,03,10,01,12,32.20
2016,03,10,01,13,41.80
2016,03,10,01,14,38.60
2016,03,10,01,15,33.80
2016,03,10,01,16,41.80
2016,03,10,01,17,27.40
2016,03,10,01,18,24.20
2016,03,10,01,19,30.60
2016,03,10,01,20,29.00
2016,03,10,01,21,41.80
2016,03,10,01,22,22.50
2016,03,10,01,23,29.00
2016,03,10,01,24,24.20
2016,03,10,01,25,25.70
2016,03,10,01,26,30.60
2016,03,10,01,27,30.60
2016,03,10,01,28,25.70
2016,03,10,01,29,29.00
2016,03,10,01,30,25.70
2016,03,10,01,31,30.60
2016,03,10,01,32,19.30
2016,03,10,01,33,22.50
2016,03,10,01,34,24.20
2016,03,10,01,35,32.20
2016,03,10,01,36,24.20
2016,03,10,01,37,19.30
2016,03,10,01,38,12.90
2016,03,10,01,39,32.20
2016,03,10,01,40,14.50
2016,03,10,01,41,14.50
2016,03,10,01,42,20.90
2016,03,10,01,43,19.30
2016,03,10,01,44,19.30
2016,03,10,01,45,20.90
2016,03,10,01,46,19.30
2016,03,10,01,47,24.20
2016,03,10,01,48,20.90
2016,03,10,01,49,24.20
2016,03,10,01,50,24.20
2016,03,10,01,51,8.10
2016,03,10,01,52,22.50
2016,03,10,01,53,16.10
2016,03,10,01,54,16.10
2016,03,10,01,55,14.50
2016,03,10,01,56,24.20
2016,03,10,01,57,19.30
2016,03,10,01,58,22.50
2016,03,10,01,59,22.50
2016,03,10,02,00,19.30
2016,03,10,02,01,11.30
2016,03,10,02,02,24.20
2016,03,10,02,03,16.10
2016,03,10,02,04,17.70
2016,03,10,02,05,14.50
2016,03,10,02,06,20.90
2016,03,10,02,07,16.10
2016,03,10,02,08,20.90
2016,03,10,02,09,16.10
2016,03,10,02,10,14.50
2016,03,10,02,11,24.20
2016,03,10,02,12,24.20
2016,03,10,02,13,40.20
2016,03,10,02,14,29.00
2016,03,10,02,15,24.20
2016,03,10,02,16,33.80
2016,03,10,02,17,20.90
2016,03,10,02,18,22.50
2016,03,10,02,19,20.90
2016,03,10,02,20,16.10
2016,03,10,02,21,16.10
2016,03,10,02,22,24.20
2016,03,10,02,23,27.40
2016,03,10,02,24,32.20
2016,03,10,02,25,30.60
2016,03,10,02,26,22.50
2016,03,10,02,27,16.10
2016,03,10,02,28,38.60
2016,03,10,02,29,22.50
2016,03,10,02,30,27.40
2016,03,10,02,31,14.50
2016,03,10,02,32,17.70
2016,03,10,02,33,19.30
2016,03,10,02,34,19.30
2016,03,10,02,35,30.60
2016,03,10,02,36,19.30
2016,03,10,02,37,19.30
2016,03,10,02,38,20.90
2016,03,10,02,39,29.00
2016,03,10,02,40,19.30
2016,03,10,02,41,22.50
2016,03,10,02,42,25.70
2016,03,10,02,43,17.70
2016,03,10,02,44,14.50
2016,03,10,02,45,19.30
2016,03,10,02,46,24.20
2016,03,10,02,47,24.20
2016,03,10,02,48,6.40
2016,03,10,02,49,12.90
2016,03,10,02,50,20.90
2016,03,10,02,51,14.50
2016,03,10,02,52,25.70
2016,03,10,02,53,9.60
2016,03,10,02,54,17.70
2016,03,10,02,55,25.70
2016,03,10,02,56,19.30
2016,03,10,02,57,16.10
2016,03,10,02,58,19.30
2016,03,10,02,59,19.30
2016,03,10,03,00,19.30
2016,03,10,03,01,12.90
2016,03,10,03,02,14.50
2016,03,10,03,03,24.20
2016,03,10,03,04,12.90
2016,03,10,03,05,19.30
2016,03,10,03,06,12.90
2016,03,10,03,07,14.50
2016,03,10,03,08,24.20
2016,03,10,03,09,14.50
2016,03,10,03,10,12.90
2016,03,10,03,11,12.90
2016,03,10,03,12,9.60
2016,03,10,03,13,12.90
2016,03,10,03,14,19.30
2016,03,10,03,15,20.90
2016,03,10,03,16,27.40
2016,03,10,03,17,25.70
2016,03,10,03,18,20.90
2016,03,10,03,19,17.70
2016,03,10,03,20,27.40
2016,03,10,03,21,29.00
2016,03,10,03,22,27.40
2016,03,10,03,23,37.00
2016,03,10,03,24,20.90
2016,03,10,03,25,17.70
2016,03,10,03,26,22.50
2016,03,10,03,27,30.60
2016,03,10,03,28,25.70
2016,03,10,03,29,20.90
2016,03,10,03,30,20.90
2016,03,10,03,31,29.00
2016,03,10,03,32,27.40
2016,03,10,03,33,25.70
2016,03,10,03,34,22.50
2016,03,10,03,35,20.90
2016,03,10,03,36,19.30
2016,03,10,03,37,4.80
2016,03,10,03,38,3.20
2016,03,10,03,39,3.20
2016,03,10,03,40,3.20
2016,03,10,03,41,14.50
2016,03,10,03,42,29.00
2016,03,10,03,43,19.30
2016,03,10,03,44,33.80
2016,03,10,03,45,17.70
2016,03,10,03,46,17.70
2016,03,10,03,47,12.90
2016,03,10,03,48,14.50
2016,03,10,03,49,12.90
2016,03,10,03,50,14.50
2016,03,10,03,51,22.50
2016,03,10,03,52,11.30
2016,03,10,03,53,12.90
2016,03,10,03,54,14.50
2016,03,10,03,55,12.90
2016,03,10,03,56,17.70
2016,03,10,03,57,43.50
2016,03,10,03,58,32.20
2016,03,10,03,59,24.20
2016,03,10,04,00,24.20
2016,03,10,04,01,25.70
2016,03,10,04,02,22.50
2016,03,10,04,03,20.90
2016,03,10,04,04,32.20
2016,03,10,04,05,29.00
2016,03,10,04,06,16.10
2016,03,10,04,07,24.20
2016,03,10,04,08,20.90
2016,03,10,04,09,20.90
2016,03,10,04,10,24.20
2016,03,10,04,11,24.20
2016,03,10,04,12,20.90
2016,03,10,04,13,17.70
2016,03,10,04,14,37.00
2016,03,10,04,15,22.50
2016,03,10,04,16,24.20
2016,03,10,04,17,30.60
2016,03,10,04,18,22.50
2016,03,10,04,19,20.90
2016,03,10,04,20,19.30
2016,03,10,04,21,35.40
2016,03,10,04,22,24.20
2016,03,10,04,23,24.20
2016,03,10,04,24,17.70
2016,03,10,04,25,16.10
2016,03,10,04,26,19.30
2016,03,10,04,27,20.90
2016,03,10,04,28,14.50
2016,03,10,04,29,22.50
2016,03,10,04,30,22.50
2016,03,10,04,31,30.60
2016,03,10,04,32,37.00
2016,03,10,04,33,27.40
2016,03,10,04,34,16.10
2016,03,10,04,35,35.40
2016,03,10,04,36,35.40
2016,03,10,04,37,29.00
2016,03,10,04,38,20.90
2016,03,10,04,39,48.30
2016,03,10,04,40,30.60
2016,03,10,04,41,32.20
2016,03,10,04,42,33.80
2016,03,10,04,43,43.50
2016,03,10,04,44,43.50
2016,03,10,04,45,25.70
2016,03,10,04,46,20.90
2016,03,10,04,47,27.40
2016,03,10,04,48,37.00
2016,03,10,04,49,48.30
2016,03,10,04,50,25.70
2016,03,10,04,51,29.00
2016,03,10,04,52,32.20
2016,03,10,04,53,54.70
2016,03,10,04,54,17.70
2016,03,10,04,55,35.40
2016,03,10,04,56,24.20
2016,03,10,04,57,24.20
2016,03,10,04,58,30.60
2016,03,10,04,59,24.20
2016,03,10,05,00,43.50
2016,03,10,05,01,37.00
2016,03,10,05,02,30.60
2016,03,10,05,03,30.60
2016,03,10,05,04,19.30
2016,03,10,05,05,17.70
2016,03,10,05,06,17.70
2016,03,10,05,07,25.70
2016,03,10,05,08,24.20
2016,03,10,05,09,24.20
2016,03,10,05,10,32.20
2016,03,10,05,11,25.70
2016,03,10,05,12,49.90
2016,03,10,05,13,20.90
2016,03,10,05,14,29.00
2016,03,10,05,15,33.80
2016,03,10,05,16,33.80
2016,03,10,05,17,22.50
2016,03,10,05,18,19.30
2016,03,10,05,19,30.60
2016,03,10,05,20,35.40
2016,03,10,05,21,25.70
2016,03,10,05,22,41.80
2016,03,10,05,23,27.40
2016,03,10,05,24,29.00
2016,03,10,05,25,19.30
2016,03,10,05,26,24.20
2016,03,10,05,27,29.00
2016,03,10,05,28,32.20
2016,03,10,05,29,22.50
2016,03,10,05,30,32.20
2016,03,10,05,31,29.00
2016,03,10,05,32,45.10
2016,03,10,05,33,32.20
2016,03,10,05,34,32.20
2016,03,10,05,35,41.80
2016,03,10,05,36,41.80
2016,03,10,05,37,30.60
2016,03,10,05,38,35.40
2016,03,10,05,39,49.90
2016,03,10,05,40,32.20
2016,03,10,05,41,35.40
2016,03,10,05,42,29.00
2016,03,10,05,43,20.90
2016,03,10,05,44,32.20
2016,03,10,05,45,33.80
2016,03,10,05,46,45.10
2016,03,10,05,47,29.00
2016,03,10,05,48,25.70
2016,03,10,05,49,33.80
2016,03,10,05,50,29.00
2016,03,10,05,51,37.00
2016,03,10,05,52,38.60
2016,03,10,05,53,46.70
2016,03,10,05,54,29.00
2016,03,10,05,55,40.20
2016,03,10,05,56,33.80
2016,03,10,05,57,29.00
2016,03,10,05,58,35.40
2016,03,10,05,59,40.20
2016,03,10,06,00,33.80
2016,03,10,06,01,38.60
2016,03,10,06,02,27.40
2016,03,10,06,03,37.00
2016,03,10,06,04,30.60
2016,03,10,06,05,24.20
2016,03,10,06,06,11.30
2016,03,10,06,07,40.20
2016,03,10,06,08,24.20
2016,03,10,06,09,16.10
2016,03,10,06,10,19.30
2016,03,10,06,11,20.90
2016,03,10,06,12,19.30
2016,03,10,06,13,17.70
2016,03,10,06,14,25.70
2016,03,10,06,15,27.40
2016,03,10,06,16,25.70
2016,03,10,06,17,30.60
2016,03,10,06,18,32.20
2016,03,10,06,19,29.00
2016,03,10,06,20,37.00
2016,03,10,06,21,27.40
2016,03,10,06,22,27.40
2016,03,10,06,23,25.70
2016,03,10,06,24,35.40
2016,03,10,06,25,32.20
2016,03,10,06,26,27.40
2016,03,10,06,27,35.40
2016,03,10,06,28,32.20
2016,03,10,06,29,29.00
2016,03,10,06,30,17.70
2016,03,10,06,31,20.90
2016,03,10,06,32,20.90
2016,03,10,06,33,33.80
2016,03,10,06,34,24.20
2016,03,10,06,35,33.80
2016,03,10,06,36,29.00
2016,03,10,06,37,20.90
2016,03,10,06,38,24.20
2016,03,10,06,39,30.60
2016,03,10,06,40,33.80
2016,03,10,06,41,22.50
2016,03,10,06,42,19.30
2016,03,10,06,43,25.70
2016,03,10,06,44,19.30
2016,03,10,06,45,24.20
2016,03,10,06,46,11.30
2016,03,10,06,47,4.80
2016,03,10,06,48,12.90
2016,03,10,06,49,12.90
2016,03,10,06,50,22.50
2016,03,10,06,51,17.70
2016,03,10,06,52,14.50
2016,03,10,06,53,24.20
2016,03,10,06,54,20.90
2016,03,10,06,55,25.70
2016,03,10,06,56,25.70
2016,03,10,06,57,19.30
2016,03,10,06,58,22.50
2016,03,10,06,59,22.50
2016,03,10,07,00,14.50
2016,03,10,07,01,27.40
2016,03,10,07,02,29.00
2016,03,10,07,03,20.90
2016,03,10,07,04,22.50
2016,03,10,07,05,19.30
2016,03,10,07,06,17.70
2016,03,10,07,07,25.70
2016,03,10,07,08,24.20
2016,03,10,07,09,24.20
2016,03,10,07,10,17.70
2016,03,10,07,11,20.90
2016,03,10,07,12,17.70
2016,03,10,07,13,25.70
2016,03,10,07,14,32.20
2016,03,10,07,15,20.90
2016,03,10,07,16,27.40
2016,03,10,07,17,32.20
2016,03,10,07,18,19.30
2016,03,10,07,19,19.30
2016,03,10,07,20,32.20
2016,03,10,07,21,25.70
2016,03,10,07,22,32.20
2016,03,10,07,23,20.90
2016,03,10,07,24,22.50
2016,03,10,07,25,22.50
2016,03,10,07,26,16.10
2016,03,10,07,27,24.20
2016,03,10,07,28,22.50
2016,03,10,07,29,22.50
2016,03,10,07,30,20.90
2016,03,10,07,31,25.70
2016,03,10,07,32,17.70
2016,03,10,07,33,14.50
2016,03,10,07,34,9.60
2016,03,10,07,35,20.90
2016,03,10,07,36,19.30
2016,03,10,07,37,19.30
2016,03,10,07,38,20.90
2016,03,10,07,39,25.70
2016,03,10,07,40,12.90
2016,03,10,07,41,20.90
2016,03,10,07,42,20.90
2016,03,10,07,43,24.20
2016,03,10,07,44,29.00
2016,03,10,07,45,24.20
2016,03,10,07,46,16.10
2016,03,10,07,47,12.90
2016,03,10,07,48,29.00
2016,03,10,07,49,22.50
2016,03,10,07,50,20.90
2016,03,10,07,51,11.30
2016,03,10,07,52,16.10
2016,03,10,07,53,14.50
2016,03,10,07,54,22.50
2016,03,10,07,55,16.10
2016,03,10,07,56,17.70
2016,03,10,07,57,19.30
2016,03,10,07,58,22.50
2016,03,10,07,59,8.10
2016,03,10,08,00,16.10
2016,03,10,08,01,16.10
2016,03,10,08,02,12.90
2016,03,10,08,03,12.90
2016,03,10,08,04,14.50
2016,03,10,08,05,14.50
2016,03,10,08,06,8.10
2016,03,10,08,07,9.60
2016,03,10,08,08,9.60
2016,03,10,08,09,9.60
2016,03,10,08,10,8.10
2016,03,10,08,11,6.40
2016,03,10,08,12,12.90
2016,03,10,08,13,9.60
2016,03,10,08,14,11.30
2016,03,10,08,15,9.60
2016,03,10,08,16,9.60
2016,03,10,08,17,4.80
2016,03,10,08,18,12.90
2016,03,10,08,19,8.10
2016,03,10,08,20,8.10
2016,03,10,08,21,8.10
2016,03,10,08,22,14.50
2016,03,10,08,23,6.40
2016,03,10,08,24,11.30
2016,03,10,08,25,4.80
2016,03,10,08,26,11.30
2016,03,10,08,27,6.40
2016,03,10,08,28,11.30
2016,03,10,08,29,9.60
2016,03,10,08,30,9.60
2016,03,10,08,31,4.80
2016,03,10,08,32,14.50
2016,03,10,08,33,9.60
2016,03,10,08,34,14.50
2016,03,10,08,35,11.30
2016,03,10,08,36,4.80
2016,03,10,08,37,8.10
2016,03,10,08,38,9.60
2016,03,10,08,39,6.40
2016,03,10,08,40,11.30
2016,03,10,08,41,4.80
2016,03,10,08,42,1.60
2016,03,10,08,43,1.60
2016,03,10,08,44,1.60
2016,03,10,08,45,6.40
2016,03,10,08,46,6.40
2016,03,10,08,47,4.80
2016,03,10,08,48,3.20
2016,03,10,08,49,8.10
2016,03,10,08,50,6.40
2016,03,10,08,51,11.30
2016,03,10,08,52,4.80
2016,03,10,08,53,4.80
2016,03,10,08,54,8.10
2016,03,10,08,55,6.40
2016,03,10,08,56,8.10
2016,03,10,08,57,9.60
2016,03,10,08,58,9.60
2016,03,10,08,59,6.40
2016,03,10,09,00,1.60
2016,03,10,09,01,1.60
2016,03,10,09,02,1.60
2016,03,10,09,03,3.20
2016,03,10,09,04,6.40
2016,03,10,09,05,4.80
2016,03,10,09,06,4.80
2016,03,10,09,07,4.80
2016,03,10,09,08,9.60
2016,03,10,09,09,9.60
2016,03,10,09,10,11.30
2016,03,10,09,11,11.30
2016,03,10,09,12,9.60
2016,03,10,09,13,12.90
2016,03,10,09,14,11.30
2016,03,10,09,15,12.90
2016,03,10,09,16,11.30
2016,03,10,09,17,12.90
2016,03,10,09,18,19.30
2016,03,10,09,19,9.60
2016,03,10,09,20,6.40
2016,03,10,09,21,11.30
2016,03,10,09,22,14.50
2016,03,10,09,23,14.50
2016,03,10,09,24,14.50
2016,03,10,09,25,17.70
2016,03,10,09,26,11.30
2016,03,10,09,27,11.30
2016,03,10,09,28,9.60
2016,03,10,09,29,12.90
2016,03,10,09,30,8.10
2016,03,10,09,31,8.10
2016,03,10,09,32,3.20
2016,03,10,09,33,6.40
2016,03,10,09,34,12.90
2016,03,10,09,35,16.10
2016,03,10,09,36,14.50
2016,03,10,09,37,12.90
2016,03,10,09,38,8.10
2016,03,10,09,39,4.80
2016,03,10,09,40,12.90
2016,03,10,09,41,12.90
2016,03,10,09,42,12.90
2016,03,10,09,43,8.10
2016,03,10,09,44,8.10
2016,03,10,09,45,14.50
2016,03,10,09,46,8.10
2016,03,10,09,47,11.30
2016,03,10,09,48,8.10
2016,03,10,09,49,8.10
2016,03,10,09,50,12.90
2016,03,10,09,51,12.90
2016,03,10,09,52,14.50
2016,03,10,09,53,12.90
2016,03,10,09,54,16.10
2016,03,10,09,55,12.90
2016,03,10,09,56,6.40
2016,03,10,09,57,12.90
2016,03,10,09,58,14.50
2016,03,10,09,59,12.90
2016,03,10,10,00,14.50
2016,03,10,10,01,8.10
2016,03,10,10,02,6.40
2016,03,10,10,03,8.10
2016,03,10,10,04,9.60
2016,03,10,10,05,11.30
2016,03,10,10,06,8.10
2016,03,10,10,07,4.80
2016,03,10,10,08,9.60
2016,03,10,10,09,8.10
2016,03,10,10,10,6.40
2016,03,10,10,11,16.10
2016,03,10,10,12,11.30
2016,03,10,10,13,11.30
2016,03,10,10,14,11.30
2016,03,10,10,15,11.30
2016,03,10,10,16,6.40
2016,03,10,10,17,4.80
2016,03,10,10,18,9.60
2016,03,10,10,19,9.60
2016,03,10,10,20,11.30
2016,03,10,10,21,12.90
2016,03,10,10,22,8.10
2016,03,10,10,23,12.90
2016,03,10,10,24,8.10
2016,03,10,10,25,14.50
2016,03,10,10,26,6.40
2016,03,10,10,27,6.40
2016,03,10,10,28,8.10
2016,03,10,10,29,6.40
2016,03,10,10,30,9.60
2016,03,10,10,31,9.60
2016,03,10,10,32,8.10
2016,03,10,10,33,9.60
2016,03,10,10,34,12.90
2016,03,10,10,35,8.10
2016,03,10,10,36,14.50
2016,03,10,10,37,8.10
2016,03,10,10,38,11.30
2016,03,10,10,39,11.30
2016,03,10,10,40,16.10
2016,03,10,10,41,12.90
2016,03,10,10,42,12.90
2016,03,10,10,43,8.10
2016,03,10,10,44,8.10
2016,03,10,10,45,6.40
2016,03,10,10,46,11.30
2016,03,10,10,47,12.90
2016,03,10,10,48,14.50
2016,03,10,10,49,12.90
2016,03,10,10,50,14.50
2016,03,10,10,51,17.70
2016,03,10,10,52,17.70
2016,03,10,10,53,14.50
2016,03,10,10,54,8.10
2016,03,10,10,55,9.60
2016,03,10,10,56,11.30
2016,03,10,10,57,8.10
2016,03,10,10,58,12.90
2016,03,10,10,59,11.30
2016,03,10,11,00,9.60
2016,03,10,11,01,16.10
2016,03,10,11,02,12.90
2016,03,10,11,03,14.50
2016,03,10,11,04,16.10
2016,03,10,11,05,16.10
2016,03,10,11,06,16.10
2016,03,10,11,07,16.10
2016,03,10,11,08,14.50
2016,03,10,11,09,11.30
2016,03,10,11,10,17.70
2016,03,10,11,11,11.30
2016,03,10,11,12,12.90
2016,03,10,11,13,6.40
2016,03,10,11,14,12.90
2016,03,10,11,15,16.10
2016,03,10,11,16,20.90
2016,03,10,11,17,11.30
2016,03,10,11,18,12.90
2016,03,10,11,19,14.50
2016,03,10,11,20,16.10
2016,03,10,11,21,11.30
2016,03,10,11,22,16.10
2016,03,10,11,23,14.50
2016,03,10,11,24,16.10
2016,03,10,11,25,11.30
2016,03,10,11,26,16.10
2016,03,10,11,27,14.50
2016,03,10,11,28,6.40
2016,03,10,11,29,11.30
2016,03,10,11,30,6.40
2016,03,10,11,31,16.10
2016,03,10,11,32,12.90
2016,03,10,11,33,11.30
2016,03,10,11,34,11.30
2016,03,10,11,35,17.70
2016,03,10,11,36,9.60
2016,03,10,11,37,12.90
2016,03,10,11,38,14.50
2016,03,10,11,39,4.80
2016,03,10,11,40,12.90
2016,03,10,11,41,4.80
2016,03,10,11,42,12.90
2016,03,10,11,43,12.90
2016,03,10,11,44,12.90
2016,03,10,11,45,20.90
2016,03,10,11,46,16.10
2016,03,10,11,47,12.90
2016,03,10,11,48,16.10
2016,03,10,11,49,12.90
2016,03,10,11,50,16.10
2016,03,10,11,51,16.10
2016,03,10,11,52,11.30
2016,03,10,11,53,20.90
2016,03,10,11,54,8.10
2016,03,10,11,55,17.70
2016,03,10,11,56,9.60
2016,03,10,11,57,4.80
2016,03,10,11,58,14.50
2016,03,10,11,59,8.10
2016,03,10,12,00,11.30
2016,03,10,12,01,11.30
2016,03,10,12,02,9.60
2016,03,10,12,03,14.50
2016,03,10,12,04,16.10
2016,03,10,12,05,12.90
2016,03,10,12,06,14.50
2016,03,10,12,07,17.70
2016,03,10,12,08,17.70
2016,03,10,12,09,12.90
2016,03,10,12,10,16.10
2016,03,10,12,11,6.40
2016,03,10,12,12,14.50
2016,03,10,12,13,14.50
2016,03,10,12,14,9.60
2016,03,10,12,15,11.30
2016,03,10,12,16,8.10
2016,03,10,12,17,11.30
2016,03,10,12,18,12.90
2016,03,10,12,19,8.10
2016,03,10,12,20,14.50
2016,03,10,12,21,20.90
2016,03,10,12,22,16.10
2016,03,10,12,23,9.60
2016,03,10,12,24,16.10
2016,03,10,12,25,20.90
2016,03,10,12,26,14.50
2016,03,10,12,27,17.70
2016,03,10,12,28,9.60
2016,03,10,12,29,14.50
2016,03,10,12,30,17.70
2016,03,10,12,31,14.50
2016,03,10,12,32,12.90
2016,03,10,12,33,12.90
2016,03,10,12,34,12.90
2016,03,10,12,35,16.10
2016,03,10,12,36,16.10
2016,03,10,12,37,12.90
2016,03,10,12,38,12.90
2016,03,10,12,39,11.30
2016,03,10,12,40,9.60
2016,03,10,12,41,9.60
2016,03,10,12,42,14.50
2016,03,10,12,43,17.70
2016,03,10,12,44,9.60
2016,03,10,12,45,8.10
2016,03,10,12,46,17.70
2016,03,10,12,47,14.50
2016,03,10,12,48,8.10
2016,03,10,12,49,11.30
2016,03,10,12,50,16.10
2016,03,10,12,51,8.10
2016,03,10,12,52,12.90
2016,03,10,12,53,16.10
2016,03,10,12,54,20.90
2016,03,10,12,55,6.40
2016,03,10,12,56,11.30
2016,03,10,12,57,14.50
2016,03,10,12,58,8.10
2016,03,10,12,59,11.30
2016,03,10,13,00,16.10
2016,03,10,13,01,16.10
2016,03,10,13,02,6.40
2016,03,10,13,03,20.90
2016,03,10,13,04,17.70
2016,03,10,13,05,14.50
2016,03,10,13,06,12.90
2016,03,10,13,07,6.40
2016,03,10,13,08,3.20
2016,03,10,13,09,14.50
2016,03,10,13,10,16.10
2016,03,10,13,11,11.30
2016,03,10,13,12,12.90
2016,03,10,13,13,12.90
2016,03,10,13,14,6.40
2016,03,10,13,15,12.90
2016,03,10,13,16,11.30
2016,03,10,13,17,16.10
2016,03,10,13,18,11.30
2016,03,10,13,19,8.10
2016,03,10,13,20,14.50
2016,03,10,13,21,8.10
2016,03,10,13,22,6.40
2016,03,10,13,23,12.90
2016,03,10,13,24,14.50
2016,03,10,13,25,11.30
2016,03,10,13,26,14.50
2016,03,10,13,27,16.10
2016,03,10,13,28,6.40
2016,03,10,13,29,11.30
2016,03,10,13,30,12.90
2016,03,10,13,31,14.50
2016,03,10,13,32,11.30
2016,03,10,13,33,8.10
2016,03,10,13,34,11.30
2016,03,10,13,35,12.90
2016,03,10,13,36,4.80
2016,03,10,13,37,4.80
2016,03,10,13,38,4.80
2016,03,10,13,39,8.10
2016,03,10,13,40,4.80
2016,03,10,13,41,4.80
2016,03,10,13,42,11.30
2016,03,10,13,43,8.10
2016,03,10,13,44,9.60
2016,03,10,13,45,19.30
2016,03,10,13,46,16.10
2016,03,10,13,47,12.90
2016,03,10,13,48,14.50
2016,03,10,13,49,3.20
2016,03,10,13,50,8.10
2016,03,10,13,51,16.10
2016,03,10,13,52,14.50
2016,03,10,13,53,12.90
2016,03,10,13,54,12.90
2016,03,10,13,55,6.40
2016,03,10,13,56,4.80
2016,03,10,13,57,8.10
2016,03,10,13,58,6.40
2016,03,10,13,59,8.10
2016,03,10,14,00,12.90
2016,03,10,14,01,9.60
2016,03,10,14,02,12.90
2016,03,10,14,03,12.90
2016,03,10,14,04,8.10
2016,03,10,14,05,6.40
2016,03,10,14,06,9.60
2016,03,10,14,07,11.30
2016,03,10,14,08,14.50
2016,03,10,14,09,11.30
2016,03,10,14,10,12.90
2016,03,10,14,11,11.30
2016,03,10,14,12,8.10
2016,03,10,14,13,9.60
2016,03,10,14,14,8.10
2016,03,10,14,15,9.60
2016,03,10,14,16,11.30
2016,03,10,14,17,8.10
2016,03,10,14,18,9.60
2016,03,10,14,19,14.50
2016,03,10,14,20,11.30
2016,03,10,14,21,11.30
2016,03,10,14,22,12.90
2016,03,10,14,23,8.10
2016,03,10,14,24,9.60
2016,03,10,14,25,17.70
2016,03,10,14,26,14.50
2016,03,10,14,27,14.50
2016,03,10,14,28,14.50
2016,03,10,14,29,8.10
2016,03,10,14,30,12.90
2016,03,10,14,31,12.90
2016,03,10,14,32,11.30
2016,03,10,14,33,11.30
2016,03,10,14,34,14.50
2016,03,10,14,35,12.90
2016,03,10,14,36,16.10
2016,03,10,14,37,12.90
2016,03,10,14,38,12.90
2016,03,10,14,39,16.10
2016,03,10,14,40,16.10
2016,03,10,14,41,14.50
2016,03,10,14,42,12.90
2016,03,10,14,43,14.50
2016,03,10,14,44,14.50
2016,03,10,14,45,14.50
2016,03,10,14,46,20.90
2016,03,10,14,47,22.50
2016,03,10,14,48,17.70
2016,03,10,14,49,17.70
2016,03,10,14,50,11.30
2016,03,10,14,51,11.30
2016,03,10,14,52,11.30
2016,03,10,14,53,9.60
2016,03,10,14,54,12.90
2016,03,10,14,55,14.50
2016,03,10,14,56,16.10
2016,03,10,14,57,16.10
2016,03,10,14,58,16.10
2016,03,10,14,59,12.90
2016,03,10,15,00,11.30
2016,03,10,15,01,19.30
2016,03,10,15,02,19.30
2016,03,10,15,03,19.30
2016,03,10,15,04,14.50
2016,03,10,15,05,11.30
2016,03,10,15,06,17.70
2016,03,10,15,07,12.90
2016,03,10,15,08,16.10
2016,03,10,15,09,12.90
2016,03,10,15,10,19.30
2016,03,10,15,11,17.70
2016,03,10,15,12,14.50
2016,03,10,15,13,12.90
2016,03,10,15,14,11.30
2016,03,10,15,15,3.20
2016,03,10,15,16,17.70
2016,03,10,15,17,16.10
2016,03,10,15,18,12.90
2016,03,10,15,19,9.60
2016,03,10,15,20,3.20
2016,03,10,15,21,4.80
2016,03,10,15,22,11.30
2016,03,10,15,23,6.40
2016,03,10,15,24,8.10
2016,03,10,15,25,8.10
2016,03,10,15,26,11.30
2016,03,10,15,27,8.10
2016,03,10,15,28,14.50
2016,03,10,15,29,6.40
2016,03,10,15,30,6.40
2016,03,10,15,31,11.30
2016,03,10,15,32,19.30
2016,03,10,15,33,14.50
2016,03,10,15,34,20.90
2016,03,10,15,35,9.60
2016,03,10,15,36,12.90
2016,03,10,15,37,19.30
2016,03,10,15,38,16.10
2016,03,10,15,39,17.70
2016,03,10,15,40,17.70
2016,03,10,15,41,9.60
2016,03,10,15,42,17.70
2016,03,10,15,43,14.50
2016,03,10,15,44,12.90
2016,03,10,15,45,11.30
2016,03,10,15,46,8.10
2016,03,10,15,47,9.60
2016,03,10,15,48,11.30
2016,03,10,15,49,9.60
2016,03,10,15,50,6.40
2016,03,10,15,51,11.30
2016,03,10,15,52,6.40
2016,03,10,15,53,11.30
2016,03,10,15,54,11.30
2016,03,10,15,55,14.50
2016,03,10,15,56,11.30
2016,03,10,15,57,6.40
2016,03,10,15,58,9.60
2016,03,10,15,59,8.10
2016,03,10,16,00,12.90
2016,03,10,16,01,19.30
2016,03,10,16,02,17.70
2016,03,10,16,03,9.60
2016,03,10,16,04,12.90
2016,03,10,16,05,16.10
2016,03,10,16,06,11.30
2016,03,10,16,07,9.60
2016,03,10,16,08,14.50
2016,03,10,16,09,9.60
2016,03,10,16,10,11.30
2016,03,10,16,11,16.10
2016,03,10,16,12,14.50
2016,03,10,16,13,14.50
2016,03,10,16,14,12.90
2016,03,10,16,15,11.30
2016,03,10,16,16,9.60
2016,03,10,16,17,11.30
2016,03,10,16,18,11.30
2016,03,10,16,19,11.30
2016,03,10,16,20,12.90
2016,03,10,16,21,11.30
2016,03,10,16,22,16.10
2016,03,10,16,23,9.60
2016,03,10,16,24,14.50
2016,03,10,16,25,16.10
2016,03,10,16,26,24.20
2016,03,10,16,27,14.50
2016,03,10,16,28,9.60
2016,03,10,16,29,16.10
2016,03,10,16,30,17.70
2016,03,10,16,31,12.90
2016,03,10,16,32,11.30
2016,03,10,16,33,11.30
2016,03,10,16,34,8.10
2016,03,10,16,35,12.90
2016,03,10,16,36,16.10
2016,03,10,16,37,14.50
2016,03,10,16,38,29.00
2016,03,10,16,39,14.50
2016,03,10,16,40,11.30
2016,03,10,16,41,17.70
2016,03,10,16,42,16.10
2016,03,10,16,43,20.90
2016,03,10,16,44,12.90
2016,03,10,16,45,11.30
2016,03,10,16,46,12.90
2016,03,10,16,47,11.30
2016,03,10,16,48,11.30
2016,03,10,16,49,17.70
2016,03,10,16,50,17.70
2016,03,10,16,51,12.90
2016,03,10,16,52,9.60
2016,03,10,16,53,19.30
2016,03,10,16,54,11.30
2016,03,10,16,55,19.30
2016,03,10,16,56,14.50
2016,03,10,16,57,24.20
2016,03,10,16,58,9.60
2016,03,10,16,59,12.90
2016,03,10,17,00,9.60
2016,03,10,17,01,6.40
2016,03,10,17,02,8.10
2016,03,10,17,03,6.40
2016,03,10,17,04,14.50
2016,03,10,17,05,12.90
2016,03,10,17,06,14.50
2016,03,10,17,07,9.60
2016,03,10,17,08,11.30
2016,03,10,17,09,14.50
2016,03,10,17,10,8.10
2016,03,10,17,11,11.30
2016,03,10,17,12,14.50
2016,03,10,17,13,16.10
2016,03,10,17,14,14.50
2016,03,10,17,15,14.50
2016,03,10,17,16,11.30
2016,03,10,17,17,14.50
2016,03,10,17,18,11.30
2016,03,10,17,19,14.50
2016,03,10,17,20,12.90
2016,03,10,17,21,12.90
2016,03,10,17,22,14.50
2016,03,10,17,23,12.90
2016,03,10,17,24,12.90
2016,03,10,17,25,11.30
2016,03,10,17,26,12.90
2016,03,10,17,27,16.10
2016,03,10,17,28,19.30